Flag for U.S.A. Weather past 2 weeks in Chula Vista, California, U.S.A.

Now
71 °F

Overcast.


Feels Like: 71 °F
Forecast: 67 / 77 °F
Wind: 7 mph from West

Location: Brown Field Municipal Airport

Current Time: Sep 18, 2014 at 11:36:51 PM

Latest Report: Sep 18, 2014 at 10:53 PM


Visibility: 10 mi

Pressure: 29.86 "Hg

Humidity: 81%

Dew point: 65 °F

Location of Chula VistaLocation

Historic Weather in Chula Vista — Graph

°F

Chula Vista temperature yesterday

Maximum temperature yesterday: 94 °F (at 11:53 AM)
Minimum temperature yesterday: 70 °F (at 11:53 PM)
Average temperature yesterday: 82 °F

Past Weeks' High & Low Weather Summary

 TemperatureHumidityPressure
High101 °F (Sep 16, 12:53 PM)97% (Sep 13, 5:53 AM)29.92 "Hg (Sep 13, 5:53 AM)
Low63 °F (Sep 5, 2:53 AM)30% (Sep 16, 12:53 PM)29.68 "Hg (Sep 16, 3:53 PM)
Average76 °F70%29.80 "Hg
* Reported Sep 3 9:53 PM — Sep 18 9:53 PM, Chula Vista, Weather by CustomWeather, © 2014

Note: Actual official high and low records may vary slightly from our data, if they occured in-between our weather recording intervals... More about our weather records

Advertising

Chula Vista weather history for previous 24 hours

 ConditionsComfort  
Time TempWeatherWind HumidityBarometerVisibility
9:53 PM
Sep 18
71 °FOvercast.7 mph81%29.86 "Hg10 mi
8:53 PM71 °FOvercast.7 mph81%29.86 "Hg10 mi
8:02 PM71 °FOvercast.7 mph81%29.86 "Hg10 mi
6:53 PM71 °FPartly sunny.6 mph81%29.83 "Hg10 mi
5:53 PM72 °FScattered clouds.12 mph81%29.82 "Hg10 mi
4:53 PM76 °FSunny.8 mph69%29.82 "Hg10 mi
3:53 PM77 °FSunny.8 mph66%29.82 "Hg10 mi
2:53 PM78 °FSunny.12 mph64%29.83 "Hg10 mi
1:53 PM79 °FSunny.10 mph62%29.84 "Hg10 mi
12:53 PM79 °FSunny.9 mph65%29.85 "Hg10 mi
11:53 AM79 °FSunny.8 mph65%29.87 "Hg10 mi
10:53 AM78 °FSunny.6 mph62%29.87 "Hg10 mi
9:53 AM74 °FPartly sunny.3 mph71%29.88 "Hg10 mi
8:53 AM73 °FOvercast.No wind76%29.88 "Hg10 mi
7:53 AM71 °FOvercast.No wind81%29.87 "Hg10 mi
7:02 AM70 °FOvercast.3 mph87%29.87 "Hg10 mi
6:53 AM70 °FOvercast.No wind87%29.85 "Hg10 mi
5:53 AM69 °FOvercast.5 mph93%29.83 "Hg10 mi
4:53 AM69 °FLow clouds.5 mph93%29.81 "Hg10 mi
4:04 AM67 °FPassing clouds.N/A93%29.82 "Hg10 mi
3:53 AM68 °FPassing clouds.N/A93%29.80 "Hg10 mi
2:53 AM68 °FLow clouds.No wind93%29.80 "Hg10 mi
1:53 AM68 °FPassing clouds.5 mph93%29.81 "Hg9 mi
12:53 AM69 °FClear.5 mph90%29.81 "Hg10 mi
11:53 PM
Sep 17
70 °FClear.5 mph87%29.80 "Hg10 mi
Weather by CustomWeather, © 2014

See weather overviewHow to use our weather pages